Andrews AFB, MD

8:24 AM EDT on April 19, 2018 (GMT -0400)
Andrews Air Force Base-Naf

Weather History for KADW - July, 2013

Change the Weather History Date:

Saturday, July 6, 2013

  Actual Average Record
Temperature  
Mean Temperature 84 °F -  
Max Temperature 91 °F 83 °F 100 °F (1999)
Min Temperature 74 °F 63 °F 57 °F (2001)
Cooling Degree Days 18    
Growing Degree Days 34 (Base 50)    
Moisture  
Dew Point 72 °F    
Average Humidity 70    
Maximum Humidity 91    
Minimum Humidity 46    
Precipitation  
Precipitation 0.00 in - - ()
Sea Level Pressure  
Sea Level Pressure 30.17 in    
Wind  
Wind Speed 9 mph (SSW)    
Max Wind Speed 15 mph    
Max Gust Speed -    
Visibility 10 miles    
Events      
Averages and records for this station are not official NWS values.
T = Trace of Precipitation, MM = Missing Value Source: NWS Daily Summary

Daily Weather History Graph

Daily Weather History Graph

Search for Another Location

Airport or City:

Astronomy

Jul. 06, 2013 Rise Set
Actual Time 5:48 AM EDT 8:35 PM EDT
Civil Twilight 5:17 AM EDT 9:07 PM EDT
Nautical Twilight 4:37 AM EDT 9:46 PM EDT
Astronomical Twilight 3:52 AM EDT 10:31 PM EDT
Moon 4:32 AM EDT (7/6) 7:15 PM EDT (7/6)
Length of Visible Light 15h 49m
Length of Day
14h 46m
Waning Crescent, 2% of the Moon is Illuminated
Jul 6
Waning Crescent
Jul 8
New
Jul 15
First Quarter
Jul 22
Full
Jul 29
Last Quarter

Hourly Weather History & Observations

Time (EDT) Temp. Heat Index Dew Point Humidity Pressure Visibility Wind Dir Wind Speed Gust Speed Precip Events Conditions
12:58 AM 77.0 °F - 72.0 °F 84% 30.20 in 10.0 mi SSW 8.1 mph - N/A   Clear
1:58 AM 77.7 °F - 72.0 °F 82% 30.19 in 10.0 mi SSW 8.1 mph - N/A   Clear
2:58 AM 75.7 °F - 72.0 °F 88% 30.19 in 10.0 mi SSW 6.9 mph - N/A   Clear
3:58 AM 74.3 °F - 71.4 °F 91% 30.19 in 10.0 mi South 5.8 mph - N/A   Clear
4:58 AM 74.8 °F - 72.1 °F 91% 30.19 in 10.0 mi SSW 6.9 mph - N/A   Clear
5:58 AM 74.8 °F - 72.1 °F 91% 30.19 in 10.0 mi SSW 8.1 mph - N/A   Clear
6:58 AM 76.5 °F - 72.7 °F 88% 30.20 in 10.0 mi SW 10.4 mph - N/A   Clear
7:58 AM 79.0 °F - 73.4 °F 83% 30.22 in 10.0 mi SW 10.4 mph - N/A   Clear
8:58 AM 81.9 °F 87.5 °F 73.6 °F 76% 30.22 in 10.0 mi SW 10.4 mph - N/A   Clear
9:58 AM 84.4 °F 91.0 °F 73.4 °F 69% 30.22 in 10.0 mi SW 8.1 mph - N/A   Clear
10:58 AM 86.5 °F 92.9 °F 72.3 °F 62% 30.22 in 10.0 mi WSW 9.2 mph - N/A   Clear
11:58 AM 87.4 °F 94.4 °F 72.3 °F 61% 30.20 in 10.0 mi SSW 8.1 mph - N/A   Clear
12:58 PM 89.2 °F 96.4 °F 72.0 °F 57% 30.19 in 10.0 mi SSW 13.8 mph - N/A   Partly Cloudy
1:58 PM 90.3 °F 97.7 °F 72.0 °F 55% 30.17 in 10.0 mi SW 10.4 mph - N/A   Clear
2:30 PM 91.4 °F 100.1 °F 73.4 °F 55% 30.15 in 10.0 mi SW 13.8 mph - N/A   Partly Cloudy
2:58 PM 91.4 °F 100.1 °F 73.4 °F 55% 30.16 in 10.0 mi SW 11.5 mph - N/A   Scattered Clouds
3:47 PM - - - N/A% - 10.0 mi SW 12.7 mph - N/A   Clear
3:58 PM 91.4 °F 98.4 °F 71.6 °F 52% 30.12 in 10.0 mi South 15.0 mph - N/A   Clear
4:58 PM 93.2 °F 98.8 °F 69.8 °F 46% 30.11 in 10.0 mi SSW 12.7 mph - N/A   Clear
5:58 PM 91.4 °F 98.4 °F 71.6 °F 52% 30.12 in 10.0 mi SSW 11.5 mph - N/A   Clear
6:58 PM 87.8 °F 93.8 °F 71.6 °F 58% 30.10 in 10.0 mi SW 11.5 mph - N/A   Clear
7:58 PM 85.6 °F 90.8 °F 70.7 °F 61% 30.11 in 10.0 mi SSW 10.4 mph - N/A   Clear
8:58 PM 81.9 °F 86.0 °F 70.9 °F 69% 30.12 in 10.0 mi South 8.1 mph - N/A   Clear
9:58 PM 80.8 °F 84.4 °F 70.5 °F 71% 30.14 in 10.0 mi SSW 10.4 mph - N/A   Clear
10:58 PM 79.9 °F - 70.0 °F 72% 30.14 in 10.0 mi SSW 10.4 mph - N/A   Clear
11:58 PM 79.3 °F - 69.8 °F 72% 30.14 in 10.0 mi SSW 9.2 mph - N/A   Clear